Location: ?????????
(41.2286°N, 23.0068°E)
Time: 08:26:07
(UTC+00:00)

USA 267 - Pass Details

Date: 08 November 2025
Orbit: 1100 x 1108 km, 123.0° (Epoch: 21 November)

Event Time Altitude Azimuth Distance (km) Brightness Sun altitude
Rises 03:09:56 0° 46° (NE) 3,922 6.8 -22.4°
Reaches altitude 10° 03:12:38 10° 38° (NE) 2,962 5.9 -21.9°
Maximum altitude 03:18:23 34° 336° (NNW) 1,717 4.0 -20.8°
Enters shadow 03:20:18 29° 304° (NW) 1,898 4.0 -20.4°
